owner,sensor,date,latitude,longitude,vertical_datum,mass_concentration_of_oxygen_in_sea_water,qcFlag 
DISL,ioos:station:DISL:MBLA:1,2009-04-01T00:03:00Z,30.4367,-88.0117,2.999,8.15,1111122 
DISL,ioos:station:DISL:MBLA:1,2009-04-01T00:05:00Z,30.4367,-88.0117,2.461,8.24,1111122 
DISL,ioos:station:DISL:MBLA:1,2009-04-01T00:08:00Z,30.4367,-88.0117,2.039,8.25,1111122 
DISL,ioos:station:DISL:MBLA:1,2009-04-01T00:10:00Z,30.4367,-88.0117,1.425,8.27,1111122 
DISL,ioos:station:DISL:MBLA:1,2009-04-01T00:12:00Z,30.4367,-88.0117,0.941,8.28,1111122 
DISL,ioos:station:DISL:MBLA:1,2009-04-01T00:15:00Z,30.4367,-88.0117,0.361,8.28,1111122 
DISL,ioos:station:DISL:MBLA:1,2009-04-01T01:03:00Z,30.4367,-88.0117,3.025,7.85,1111122 
DISL,ioos:station:DISL:MBLA:1,2009-04-01T01:05:00Z,30.4367,-88.0117,2.491,8.05,1111122 
DISL,ioos:station:DISL:MBLA:1,2009-04-01T01:07:00Z,30.4367,-88.0117,1.937,8.17,1111122 
DISL,ioos:station:DISL:MBLA:1,2009-04-01T01:10:00Z,30.4367,-88.0117,1.475,8.21,1111122 
DISL,ioos:station:DISL:MBLA:1,2009-04-01T01:12:00Z,30.4367,-88.0117,1.01,8.24,1111122 
DISL,ioos:station:DISL:MBLA:1,2009-04-01T01:15:00Z,30.4367,-88.0117,0.5,8.25,1111122 
DISL,ioos:station:DISL:MBLA:1,2009-04-01T02:03:00Z,30.4367,-88.0117,2.977,7.41,1111122 
DISL,ioos:station:DISL:MBLA:1,2009-04-01T02:05:00Z,30.4367,-88.0117,2.447,7.66,1111122 
DISL,ioos:station:DISL:MBLA:1,2009-04-01T02:07:00Z,30.4367,-88.0117,1.959,7.9,1111122 
DISL,ioos:station:DISL:MBLA:1,2009-04-01T02:10:00Z,30.4367,-88.0117,1.399,7.97,1111122 
DISL,ioos:station:DISL:MBLA:1,2009-04-01T02:12:00Z,30.4367,-88.0117,0.921,8.02,1111122 
DISL,ioos:station:DISL:MBLA:1,2009-04-01T02:15:00Z,30.4367,-88.0117,0.397,8.05,1111122 
DISL,ioos:station:DISL:MBLA:1,2009-04-01T03:03:00Z,30.4367,-88.0117,2.924,7.86,1111122 
DISL,ioos:station:DISL:MBLA:1,2009-04-01T03:05:00Z,30.4367,-88.0117,2.467,7.86,1111122 
DISL,ioos:station:DISL:MBLA:1,2009-04-01T03:07:00Z,30.4367,-88.0117,1.919,7.9,1111122 
DISL,ioos:station:DISL:MBLA:1,2009-04-01T03:10:00Z,30.4367,-88.0117,1.439,7.95,1111122 
DISL,ioos:station:DISL:MBLA:1,2009-04-01T03:12:00Z,30.4367,-88.0117,0.962,7.98,1111122 
DISL,ioos:station:DISL:MBLA:1,2009-04-01T03:15:00Z,30.4367,-88.0117,0.403,8.0,1111122 
DISL,ioos:station:DISL:MBLA:1,2009-04-01T04:03:00Z,30.4367,-88.0117,2.947,7.12,1111122 
DISL,ioos:station:DISL:MBLA:1,2009-04-01T04:05:00Z,30.4367,-88.0117,2.492,7.44,1111122 
DISL,ioos:station:DISL:MBLA:1,2009-04-01T04:07:00Z,30.4367,-88.0117,1.951,7.86,1111122 
DISL,ioos:station:DISL:MBLA:1,2009-04-01T04:10:00Z,30.4367,-88.0117,1.549,7.9,1111122 
DISL,ioos:station:DISL:MBLA:1,2009-04-01T04:13:00Z,30.4367,-88.0117,0.944,7.98,1111122 
DISL,ioos:station:DISL:MBLA:1,2009-04-01T04:15:00Z,30.4367,-88.0117,0.482,8.02,1111122 
DISL,ioos:station:DISL:MBLA:1,2009-04-01T05:03:00Z,30.4367,-88.0117,2.951,7.15,1111122 
DISL,ioos:station:DISL:MBLA:1,2009-04-01T05:05:00Z,30.4367,-88.0117,2.504,7.5,1111122 
DISL,ioos:station:DISL:MBLA:1,2009-04-01T05:07:00Z,30.4367,-88.0117,1.969,7.62,1111122 
DISL,ioos:station:DISL:MBLA:1,2009-04-01T05:10:00Z,30.4367,-88.0117,1.485,7.76,1111122 
DISL,ioos:station:DISL:MBLA:1,2009-04-01T05:12:00Z,30.4367,-88.0117,0.954,7.94,1111122 
DISL,ioos:station:DISL:MBLA:1,2009-04-01T05:14:00Z,30.4367,-88.0117,0.422,7.94,1111122 
DISL,ioos:station:DISL:MBLA:1,2009-04-01T06:03:00Z,30.4367,-88.0117,2.932,6.91,1111122 
DISL,ioos:station:DISL:MBLA:1,2009-04-01T06:05:00Z,30.4367,-88.0117,2.489,7.51,1111122 
DISL,ioos:station:DISL:MBLA:1,2009-04-01T06:07:00Z,30.4367,-88.0117,1.948,7.54,1111122 
DISL,ioos:station:DISL:MBLA:1,2009-04-01T06:10:00Z,30.4367,-88.0117,1.475,7.71,1111122 
DISL,ioos:station:DISL:MBLA:1,2009-04-01T06:12:00Z,30.4367,-88.0117,1.005,7.8,1111122 
DISL,ioos:station:DISL:MBLA:1,2009-04-01T06:15:00Z,30.4367,-88.0117,0.458,7.83,1111122 
DISL,ioos:station:DISL:MBLA:1,2009-04-01T07:03:00Z,30.4367,-88.0117,2.916,7.54,1111122 
DISL,ioos:station:DISL:MBLA:1,2009-04-01T07:05:00Z,30.4367,-88.0117,2.467,7.6,1111122 
DISL,ioos:station:DISL:MBLA:1,2009-04-01T07:07:00Z,30.4367,-88.0117,2.0,7.77,1111122 
DISL,ioos:station:DISL:MBLA:1,2009-04-01T07:10:00Z,30.4367,-88.0117,1.448,7.78,1111122 
DISL,ioos:station:DISL:MBLA:1,2009-04-01T07:12:00Z,30.4367,-88.0117,0.986,7.86,1111122 
DISL,ioos:station:DISL:MBLA:1,2009-04-01T07:15:00Z,30.4367,-88.0117,0.456,7.84,1111122 
DISL,ioos:station:DISL:MBLA:1,2009-04-01T08:03:00Z,30.4367,-88.0117,2.925,7.62,1111122 
DISL,ioos:station:DISL:MBLA:1,2009-04-01T08:05:00Z,30.4367,-88.0117,2.482,7.64,1111122 
DISL,ioos:station:DISL:MBLA:1,2009-04-01T08:07:00Z,30.4367,-88.0117,1.955,7.78,1111122 
DISL,ioos:station:DISL:MBLA:1,2009-04-01T08:10:00Z,30.4367,-88.0117,1.408,7.77,1111122 
DISL,ioos:station:DISL:MBLA:1,2009-04-01T08:12:00Z,30.4367,-88.0117,0.936,7.81,1111122 
DISL,ioos:station:DISL:MBLA:1,2009-04-01T08:15:00Z,30.4367,-88.0117,0.476,7.79,1111122 
DISL,ioos:station:DISL:MBLA:1,2009-04-01T09:03:00Z,30.4367,-88.0117,2.988,7.57,1111122 
DISL,ioos:station:DISL:MBLA:1,2009-04-01T09:05:00Z,30.4367,-88.0117,2.477,7.58,1111122 
DISL,ioos:station:DISL:MBLA:1,2009-04-01T09:07:00Z,30.4367,-88.0117,1.948,7.71,1111122 
DISL,ioos:station:DISL:MBLA:1,2009-04-01T09:10:00Z,30.4367,-88.0117,1.463,7.67,1111122 
DISL,ioos:station:DISL:MBLA:1,2009-04-01T09:12:00Z,30.4367,-88.0117,0.923,7.68,1111122 
DISL,ioos:station:DISL:MBLA:1,2009-04-01T09:15:00Z,30.4367,-88.0117,0.46,7.66,1111122 
DISL,ioos:station:DISL:MBLA:1,2009-04-01T10:03:00Z,30.4367,-88.0117,2.975,7.21,1111122 
DISL,ioos:station:DISL:MBLA:1,2009-04-01T10:05:00Z,30.4367,-88.0117,2.466,7.34,1111122 
DISL,ioos:station:DISL:MBLA:1,2009-04-01T10:07:00Z,30.4367,-88.0117,2.007,7.46,1111122 
DISL,ioos:station:DISL:MBLA:1,2009-04-01T10:10:00Z,30.4367,-88.0117,1.469,7.62,1111122 
DISL,ioos:station:DISL:MBLA:1,2009-04-01T10:12:00Z,30.4367,-88.0117,1.004,7.65,1111122 
DISL,ioos:station:DISL:MBLA:1,2009-04-01T10:15:00Z,30.4367,-88.0117,0.482,7.7,1111122 
DISL,ioos:station:DISL:MBLA:1,2009-04-01T11:03:00Z,30.4367,-88.0117,2.982,7.72,1111122 
DISL,ioos:station:DISL:MBLA:1,2009-04-01T11:05:00Z,30.4367,-88.0117,2.48,7.74,1111122 
DISL,ioos:station:DISL:MBLA:1,2009-04-01T11:08:00Z,30.4367,-88.0117,1.966,7.77,1111122 
DISL,ioos:station:DISL:MBLA:1,2009-04-01T11:10:00Z,30.4367,-88.0117,1.381,7.78,1111122 
DISL,ioos:station:DISL:MBLA:1,2009-04-01T11:13:00Z,30.4367,-88.0117,0.923,7.81,1111122 
DISL,ioos:station:DISL:MBLA:1,2009-04-01T11:15:00Z,30.4367,-88.0117,0.502,7.83,1111122 
DISL,ioos:station:DISL:MBLA:1,2009-04-01T12:03:00Z,30.4367,-88.0117,2.946,7.56,1111122 
DISL,ioos:station:DISL:MBLA:1,2009-04-01T12:06:00Z,30.4367,-88.0117,2.556,7.57,1111122 
DISL,ioos:station:DISL:MBLA:1,2009-04-01T12:08:00Z,30.4367,-88.0117,1.892,7.6,1111122 
DISL,ioos:station:DISL:MBLA:1,2009-04-01T12:11:00Z,30.4367,-88.0117,1.236,7.63,1111122 
DISL,ioos:station:DISL:MBLA:1,2009-04-01T12:13:00Z,30.4367,-88.0117,0.969,7.62,1111122 
DISL,ioos:station:DISL:MBLA:1,2009-04-01T12:17:00Z,30.4367,-88.0117,0.38,7.6,1111122 
DISL,ioos:station:DISL:MBLA:1,2009-04-01T13:02:00Z,30.4367,-88.0117,2.961,7.6,1111122 
DISL,ioos:station:DISL:MBLA:1,2009-04-01T13:05:00Z,30.4367,-88.0117,2.434,7.62,1111122 
DISL,ioos:station:DISL:MBLA:1,2009-04-01T13:07:00Z,30.4367,-88.0117,2.167,7.65,1111122 
DISL,ioos:station:DISL:MBLA:1,2009-04-01T13:10:00Z,30.4367,-88.0117,1.535,7.68,1111122 
DISL,ioos:station:DISL:MBLA:1,2009-04-01T13:12:00Z,30.4367,-88.0117,1.189,7.71,1111122 
DISL,ioos:station:DISL:MBLA:1,2009-04-01T13:15:00Z,30.4367,-88.0117,0.644,7.72,1111122 
DISL,ioos:station:DISL:MBLA:1,2009-04-01T14:03:00Z,30.4367,-88.0117,2.907,7.37,1111122 
DISL,ioos:station:DISL:MBLA:1,2009-04-01T14:06:00Z,30.4367,-88.0117,2.4,7.68,1111122 
DISL,ioos:station:DISL:MBLA:1,2009-04-01T14:08:00Z,30.4367,-88.0117,1.899,7.86,1111122 
DISL,ioos:station:DISL:MBLA:1,2009-04-01T14:11:00Z,30.4367,-88.0117,1.452,7.91,1111122 
DISL,ioos:station:DISL:MBLA:1,2009-04-01T14:13:00Z,30.4367,-88.0117,0.826,7.93,1111122 
DISL,ioos:station:DISL:MBLA:1,2009-04-01T14:16:00Z,30.4367,-88.0117,0.511,7.96,1111122 
DISL,ioos:station:DISL:MBLA:1,2009-04-01T15:02:00Z,30.4367,-88.0117,2.978,7.44,1111122 
DISL,ioos:station:DISL:MBLA:1,2009-04-01T15:05:00Z,30.4367,-88.0117,2.551,7.54,1111122 
DISL,ioos:station:DISL:MBLA:1,2009-04-01T15:07:00Z,30.4367,-88.0117,2.029,7.84,1111122 
DISL,ioos:station:DISL:MBLA:1,2009-04-01T15:10:00Z,30.4367,-88.0117,1.662,7.92,1111122 
DISL,ioos:station:DISL:MBLA:1,2009-04-01T15:13:00Z,30.4367,-88.0117,1.115,7.96,1111122 
DISL,ioos:station:DISL:MBLA:1,2009-04-01T15:16:00Z,30.4367,-88.0117,0.531,7.96,1111122 
DISL,ioos:station:DISL:MBLA:1,2009-04-01T16:02:00Z,30.4367,-88.0117,3.003,7.35,1111122 
DISL,ioos:station:DISL:MBLA:1,2009-04-01T16:05:00Z,30.4367,-88.0117,2.37,7.73,1111122 
DISL,ioos:station:DISL:MBLA:1,2009-04-01T16:08:00Z,30.4367,-88.0117,2.024,7.82,1111122 
DISL,ioos:station:DISL:MBLA:1,2009-04-01T16:10:00Z,30.4367,-88.0117,1.481,7.9,1111122 
DISL,ioos:station:DISL:MBLA:1,2009-04-01T16:12:00Z,30.4367,-88.0117,0.946,7.97,1111122 
DISL,ioos:station:DISL:MBLA:1,2009-04-01T16:15:00Z,30.4367,-88.0117,0.594,7.99,1111122 
DISL,ioos:station:DISL:MBLA:1,2009-04-01T17:03:00Z,30.4367,-88.0117,3.019,7.22,1111122 
DISL,ioos:station:DISL:MBLA:1,2009-04-01T17:05:00Z,30.4367,-88.0117,2.471,7.49,1111122 
DISL,ioos:station:DISL:MBLA:1,2009-04-01T17:07:00Z,30.4367,-88.0117,1.946,7.72,1111122 
DISL,ioos:station:DISL:MBLA:1,2009-04-01T17:10:00Z,30.4367,-88.0117,1.467,7.84,1111122 
DISL,ioos:station:DISL:MBLA:1,2009-04-01T17:13:00Z,30.4367,-88.0117,0.85,7.96,1111122 
DISL,ioos:station:DISL:MBLA:1,2009-04-01T17:15:00Z,30.4367,-88.0117,0.335,8.03,1111122 
DISL,ioos:station:DISL:MBLA:1,2009-04-01T18:02:00Z,30.4367,-88.0117,3.007,7.46,1111122 
DISL,ioos:station:DISL:MBLA:1,2009-04-01T18:05:00Z,30.4367,-88.0117,2.461,7.72,1111122 
DISL,ioos:station:DISL:MBLA:1,2009-04-01T18:07:00Z,30.4367,-88.0117,1.982,7.87,1111122 
DISL,ioos:station:DISL:MBLA:1,2009-04-01T18:10:00Z,30.4367,-88.0117,1.563,7.87,1111122 
DISL,ioos:station:DISL:MBLA:1,2009-04-01T18:12:00Z,30.4367,-88.0117,1.083,7.98,1111122 
DISL,ioos:station:DISL:MBLA:1,2009-04-01T18:15:00Z,30.4367,-88.0117,0.549,8.02,1111122 
DISL,ioos:station:DISL:MBLA:1,2009-04-01T19:02:00Z,30.4367,-88.0117,2.985,7.7,1111122 
DISL,ioos:station:DISL:MBLA:1,2009-04-01T19:05:00Z,30.4367,-88.0117,2.434,7.86,1111122 
DISL,ioos:station:DISL:MBLA:1,2009-04-01T19:07:00Z,30.4367,-88.0117,1.949,7.95,1111122 
DISL,ioos:station:DISL:MBLA:1,2009-04-01T19:10:00Z,30.4367,-88.0117,1.432,7.99,1111122 
DISL,ioos:station:DISL:MBLA:1,2009-04-01T19:12:00Z,30.4367,-88.0117,0.935,7.99,1111122 
DISL,ioos:station:DISL:MBLA:1,2009-04-01T19:15:00Z,30.4367,-88.0117,0.436,8.07,1111122 
DISL,ioos:station:DISL:MBLA:1,2009-04-01T20:02:00Z,30.4367,-88.0117,3.022,7.65,1111122 
DISL,ioos:station:DISL:MBLA:1,2009-04-01T20:05:00Z,30.4367,-88.0117,2.473,7.87,1111122 
DISL,ioos:station:DISL:MBLA:1,2009-04-01T20:07:00Z,30.4367,-88.0117,1.974,7.87,1111122 
DISL,ioos:station:DISL:MBLA:1,2009-04-01T20:10:00Z,30.4367,-88.0117,1.528,7.99,1111122 
DISL,ioos:station:DISL:MBLA:1,2009-04-01T20:12:00Z,30.4367,-88.0117,1.07,7.99,1111122 
DISL,ioos:station:DISL:MBLA:1,2009-04-01T20:15:00Z,30.4367,-88.0117,0.438,8.09,1111122 
DISL,ioos:station:DISL:MBLA:1,2009-04-01T21:02:00Z,30.4367,-88.0117,2.996,7.72,1111122 
DISL,ioos:station:DISL:MBLA:1,2009-04-01T21:05:00Z,30.4367,-88.0117,2.435,7.75,1111122 
DISL,ioos:station:DISL:MBLA:1,2009-04-01T21:07:00Z,30.4367,-88.0117,1.934,7.77,1111122 
DISL,ioos:station:DISL:MBLA:1,2009-04-01T21:10:00Z,30.4367,-88.0117,1.437,7.91,1111122 
DISL,ioos:station:DISL:MBLA:1,2009-04-01T21:12:00Z,30.4367,-88.0117,0.946,8.01,1111122 
DISL,ioos:station:DISL:MBLA:1,2009-04-01T21:15:00Z,30.4367,-88.0117,0.457,8.15,1111122 
DISL,ioos:station:DISL:MBLA:1,2009-04-01T22:03:00Z,30.4367,-88.0117,3.024,7.47,1111122 
DISL,ioos:station:DISL:MBLA:1,2009-04-01T22:05:00Z,30.4367,-88.0117,2.478,7.65,1111122 
DISL,ioos:station:DISL:MBLA:1,2009-04-01T22:07:00Z,30.4367,-88.0117,1.912,7.66,1111122 
DISL,ioos:station:DISL:MBLA:1,2009-04-01T22:10:00Z,30.4367,-88.0117,1.418,7.7,1111122 
DISL,ioos:station:DISL:MBLA:1,2009-04-01T22:12:00Z,30.4367,-88.0117,0.926,7.94,1111122 
DISL,ioos:station:DISL:MBLA:1,2009-04-01T22:15:00Z,30.4367,-88.0117,0.439,8.08,1111122 
DISL,ioos:station:DISL:MBLA:1,2009-04-01T23:03:00Z,30.4367,-88.0117,3.01,7.69,1111122 
DISL,ioos:station:DISL:MBLA:1,2009-04-01T23:05:00Z,30.4367,-88.0117,2.464,7.76,1111122 
DISL,ioos:station:DISL:MBLA:1,2009-04-01T23:07:00Z,30.4367,-88.0117,2.042,7.8,1111122 
DISL,ioos:station:DISL:MBLA:1,2009-04-01T23:10:00Z,30.4367,-88.0117,1.437,7.99,1111122 
DISL,ioos:station:DISL:MBLA:1,2009-04-01T23:12:00Z,30.4367,-88.0117,0.952,8.02,1111122 
DISL,ioos:station:DISL:MBLA:1,2009-04-01T23:15:00Z,30.4367,-88.0117,0.478,8.06,1111122 
DISL,ioos:station:DISL:MBLA:1,2009-04-02T00:02:00Z,30.4367,-88.0117,2.993,7.83,1111122 
DISL,ioos:station:DISL:MBLA:1,2009-04-02T00:05:00Z,30.4367,-88.0117,2.458,7.85,1111122 
DISL,ioos:station:DISL:MBLA:1,2009-04-02T00:07:00Z,30.4367,-88.0117,1.977,7.95,1111122 
DISL,ioos:station:DISL:MBLA:1,2009-04-02T00:10:00Z,30.4367,-88.0117,1.428,7.89,1111122 
DISL,ioos:station:DISL:MBLA:1,2009-04-02T00:12:00Z,30.4367,-88.0117,0.946,7.97,1111122 
DISL,ioos:station:DISL:MBLA:1,2009-04-02T00:15:00Z,30.4367,-88.0117,0.46,8.09,1111122 
DISL,ioos:station:DISL:MBLA:1,2009-04-02T01:03:00Z,30.4367,-88.0117,2.952,7.78,1111122 
DISL,ioos:station:DISL:MBLA:1,2009-04-02T01:05:00Z,30.4367,-88.0117,2.492,7.84,1111122 
DISL,ioos:station:DISL:MBLA:1,2009-04-02T01:07:00Z,30.4367,-88.0117,1.942,7.89,1111122 
DISL,ioos:station:DISL:MBLA:1,2009-04-02T01:10:00Z,30.4367,-88.0117,1.46,7.89,1111122 
DISL,ioos:station:DISL:MBLA:1,2009-04-02T01:12:00Z,30.4367,-88.0117,0.922,7.93,1111122 
DISL,ioos:station:DISL:MBLA:1,2009-04-02T01:15:00Z,30.4367,-88.0117,0.44,7.99,1111122 
DISL,ioos:station:DISL:MBLA:1,2009-04-02T02:03:00Z,30.4367,-88.0117,2.969,7.8,1111122 
DISL,ioos:station:DISL:MBLA:1,2009-04-02T02:05:00Z,30.4367,-88.0117,2.442,7.83,1111122 
DISL,ioos:station:DISL:MBLA:1,2009-04-02T02:07:00Z,30.4367,-88.0117,1.958,7.86,1111122 
DISL,ioos:station:DISL:MBLA:1,2009-04-02T02:10:00Z,30.4367,-88.0117,1.567,7.82,1111122 
DISL,ioos:station:DISL:MBLA:1,2009-04-02T02:12:00Z,30.4367,-88.0117,0.937,7.92,1111122 
DISL,ioos:station:DISL:MBLA:1,2009-04-02T02:15:00Z,30.4367,-88.0117,0.451,7.89,1111122 
DISL,ioos:station:DISL:MBLA:1,2009-04-02T03:03:00Z,30.4367,-88.0117,2.967,7.7,1111122 
DISL,ioos:station:DISL:MBLA:1,2009-04-02T03:05:00Z,30.4367,-88.0117,2.445,7.76,1111122 
DISL,ioos:station:DISL:MBLA:1,2009-04-02T03:07:00Z,30.4367,-88.0117,1.964,7.8,1111122 
DISL,ioos:station:DISL:MBLA:1,2009-04-02T03:10:00Z,30.4367,-88.0117,1.483,7.9,1111122 
DISL,ioos:station:DISL:MBLA:1,2009-04-02T03:12:00Z,30.4367,-88.0117,0.936,7.87,1111122 
DISL,ioos:station:DISL:MBLA:1,2009-04-02T03:15:00Z,30.4367,-88.0117,0.471,7.94,1111122 
DISL,ioos:station:DISL:MBLA:1,2009-04-02T04:03:00Z,30.4367,-88.0117,3.054,7.54,1111122 
DISL,ioos:station:DISL:MBLA:1,2009-04-02T04:05:00Z,30.4367,-88.0117,2.475,7.85,1111122 
DISL,ioos:station:DISL:MBLA:1,2009-04-02T04:08:00Z,30.4367,-88.0117,1.926,7.94,1111122 
DISL,ioos:station:DISL:MBLA:1,2009-04-02T04:10:00Z,30.4367,-88.0117,1.451,8.03,1111122 
DISL,ioos:station:DISL:MBLA:1,2009-04-02T04:13:00Z,30.4367,-88.0117,0.981,8.06,1111122 
DISL,ioos:station:DISL:MBLA:1,2009-04-02T04:15:00Z,30.4367,-88.0117,0.507,8.13,1111122 
DISL,ioos:station:DISL:MBLA:1,2009-04-02T05:02:00Z,30.4367,-88.0117,3.001,7.5,1111122 
DISL,ioos:station:DISL:MBLA:1,2009-04-02T05:05:00Z,30.4367,-88.0117,2.477,7.56,1111122 
DISL,ioos:station:DISL:MBLA:1,2009-04-02T05:07:00Z,30.4367,-88.0117,1.927,7.61,1111122 
DISL,ioos:station:DISL:MBLA:1,2009-04-02T05:10:00Z,30.4367,-88.0117,1.461,7.61,1111122 
DISL,ioos:station:DISL:MBLA:1,2009-04-02T05:12:00Z,30.4367,-88.0117,0.995,7.63,1111122 
DISL,ioos:station:DISL:MBLA:1,2009-04-02T05:15:00Z,30.4367,-88.0117,0.441,7.65,1111122 
DISL,ioos:station:DISL:MBLA:1,2009-04-02T06:02:00Z,30.4367,-88.0117,2.931,7.38,1111122 
DISL,ioos:station:DISL:MBLA:1,2009-04-02T06:05:00Z,30.4367,-88.0117,2.475,7.41,1111122 
DISL,ioos:station:DISL:MBLA:1,2009-04-02T06:07:00Z,30.4367,-88.0117,1.923,7.46,1111122 
DISL,ioos:station:DISL:MBLA:1,2009-04-02T06:10:00Z,30.4367,-88.0117,1.461,7.47,1111122 
DISL,ioos:station:DISL:MBLA:1,2009-04-02T06:12:00Z,30.4367,-88.0117,0.929,7.51,1111122 
DISL,ioos:station:DISL:MBLA:1,2009-04-02T06:14:00Z,30.4367,-88.0117,0.471,7.53,1111122 
DISL,ioos:station:DISL:MBLA:1,2009-04-02T07:03:00Z,30.4367,-88.0117,2.913,7.39,1111122 
DISL,ioos:station:DISL:MBLA:1,2009-04-02T07:05:00Z,30.4367,-88.0117,2.464,7.45,1111122 
DISL,ioos:station:DISL:MBLA:1,2009-04-02T07:07:00Z,30.4367,-88.0117,1.935,7.48,1111122 
DISL,ioos:station:DISL:MBLA:1,2009-04-02T07:10:00Z,30.4367,-88.0117,1.497,7.51,1111122 
DISL,ioos:station:DISL:MBLA:1,2009-04-02T07:12:00Z,30.4367,-88.0117,0.913,7.56,1111122 
DISL,ioos:station:DISL:MBLA:1,2009-04-02T07:15:00Z,30.4367,-88.0117,0.504,7.53,1111122 
DISL,ioos:station:DISL:MBLA:1,2009-04-02T08:02:00Z,30.4367,-88.0117,2.939,6.73,1111122 
DISL,ioos:station:DISL:MBLA:1,2009-04-02T08:05:00Z,30.4367,-88.0117,2.508,7.15,1111122 
DISL,ioos:station:DISL:MBLA:1,2009-04-02T08:07:00Z,30.4367,-88.0117,1.985,7.35,1111122 
DISL,ioos:station:DISL:MBLA:1,2009-04-02T08:10:00Z,30.4367,-88.0117,1.513,7.43,1111122 
DISL,ioos:station:DISL:MBLA:1,2009-04-02T08:12:00Z,30.4367,-88.0117,0.97,7.45,1111122 
DISL,ioos:station:DISL:MBLA:1,2009-04-02T08:15:00Z,30.4367,-88.0117,0.499,7.51,1111122 
DISL,ioos:station:DISL:MBLA:1,2009-04-02T09:02:00Z,30.4367,-88.0117,2.95,7.17,1111122 
DISL,ioos:station:DISL:MBLA:1,2009-04-02T09:05:00Z,30.4367,-88.0117,2.498,7.31,1111122 
DISL,ioos:station:DISL:MBLA:1,2009-04-02T09:07:00Z,30.4367,-88.0117,1.956,7.3,1111122 
DISL,ioos:station:DISL:MBLA:1,2009-04-02T09:10:00Z,30.4367,-88.0117,1.479,7.37,1111122 
DISL,ioos:station:DISL:MBLA:1,2009-04-02T09:12:00Z,30.4367,-88.0117,0.935,7.37,1111122 
DISL,ioos:station:DISL:MBLA:1,2009-04-02T09:15:00Z,30.4367,-88.0117,0.441,7.37,1111122 
DISL,ioos:station:DISL:MBLA:1,2009-04-02T10:03:00Z,30.4367,-88.0117,2.966,6.89,1111122 
DISL,ioos:station:DISL:MBLA:1,2009-04-02T10:05:00Z,30.4367,-88.0117,2.455,7.05,1111122 
DISL,ioos:station:DISL:MBLA:1,2009-04-02T10:07:00Z,30.4367,-88.0117,1.99,7.15,1111122 
DISL,ioos:station:DISL:MBLA:1,2009-04-02T10:10:00Z,30.4367,-88.0117,1.441,7.27,1111122 
DISL,ioos:station:DISL:MBLA:1,2009-04-02T10:12:00Z,30.4367,-88.0117,0.98,7.23,1111122 
DISL,ioos:station:DISL:MBLA:1,2009-04-02T10:15:00Z,30.4367,-88.0117,0.455,7.33,1111122 
DISL,ioos:station:DISL:MBLA:1,2009-04-02T11:03:00Z,30.4367,-88.0117,3.001,6.64,1111122 
DISL,ioos:station:DISL:MBLA:1,2009-04-02T11:05:00Z,30.4367,-88.0117,2.492,6.88,1111122 
DISL,ioos:station:DISL:MBLA:1,2009-04-02T11:07:00Z,30.4367,-88.0117,1.967,6.95,1111122 
DISL,ioos:station:DISL:MBLA:1,2009-04-02T11:10:00Z,30.4367,-88.0117,1.491,7.14,1111122 
DISL,ioos:station:DISL:MBLA:1,2009-04-02T11:12:00Z,30.4367,-88.0117,0.956,7.24,1111122 
DISL,ioos:station:DISL:MBLA:1,2009-04-02T11:15:00Z,30.4367,-88.0117,0.438,7.35,1111122 
DISL,ioos:station:DISL:MBLA:1,2009-04-02T12:03:00Z,30.4367,-88.0117,2.938,6.77,1111122 
DISL,ioos:station:DISL:MBLA:1,2009-04-02T12:05:00Z,30.4367,-88.0117,2.497,7.04,1111122 
DISL,ioos:station:DISL:MBLA:1,2009-04-02T12:07:00Z,30.4367,-88.0117,1.966,7.07,1111122 
DISL,ioos:station:DISL:MBLA:1,2009-04-02T12:10:00Z,30.4367,-88.0117,1.495,7.25,1111122 
DISL,ioos:station:DISL:MBLA:1,2009-04-02T12:12:00Z,30.4367,-88.0117,0.966,7.24,1111122 
DISL,ioos:station:DISL:MBLA:1,2009-04-02T12:15:00Z,30.4367,-88.0117,0.437,7.33,1111122 
DISL,ioos:station:DISL:MBLA:1,2009-04-02T13:03:00Z,30.4367,-88.0117,2.96,7.15,1111122 
DISL,ioos:station:DISL:MBLA:1,2009-04-02T13:05:00Z,30.4367,-88.0117,2.524,7.18,1111122 
DISL,ioos:station:DISL:MBLA:1,2009-04-02T13:07:00Z,30.4367,-88.0117,2.057,7.2,1111122 
DISL,ioos:station:DISL:MBLA:1,2009-04-02T13:10:00Z,30.4367,-88.0117,1.425,7.26,1111122 
DISL,ioos:station:DISL:MBLA:1,2009-04-02T13:12:00Z,30.4367,-88.0117,1.061,7.32,1111122 
DISL,ioos:station:DISL:MBLA:1,2009-04-02T13:15:00Z,30.4367,-88.0117,0.368,7.36,1111122 
DISL,ioos:station:DISL:MBLA:1,2009-04-02T14:03:00Z,30.4367,-88.0117,2.999,7.32,1111122 
DISL,ioos:station:DISL:MBLA:1,2009-04-02T14:05:00Z,30.4367,-88.0117,2.598,7.33,1111122 
DISL,ioos:station:DISL:MBLA:1,2009-04-02T14:08:00Z,30.4367,-88.0117,2.044,7.36,1111122 
DISL,ioos:station:DISL:MBLA:1,2009-04-02T14:10:00Z,30.4367,-88.0117,1.496,7.41,1111122 
DISL,ioos:station:DISL:MBLA:1,2009-04-02T14:12:00Z,30.4367,-88.0117,0.836,7.42,1111122 
DISL,ioos:station:DISL:MBLA:1,2009-04-02T14:15:00Z,30.4367,-88.0117,0.447,7.46,1111122 
DISL,ioos:station:DISL:MBLA:1,2009-04-02T15:03:00Z,30.4367,-88.0117,2.976,7.07,1111122 
DISL,ioos:station:DISL:MBLA:1,2009-04-02T15:05:00Z,30.4367,-88.0117,2.46,7.12,1111122 
DISL,ioos:station:DISL:MBLA:1,2009-04-02T15:08:00Z,30.4367,-88.0117,2.054,7.32,1111122 
DISL,ioos:station:DISL:MBLA:1,2009-04-02T15:10:00Z,30.4367,-88.0117,1.542,7.37,1111122 
DISL,ioos:station:DISL:MBLA:1,2009-04-02T15:12:00Z,30.4367,-88.0117,1.026,7.44,1111122 
DISL,ioos:station:DISL:MBLA:1,2009-04-02T15:15:00Z,30.4367,-88.0117,0.278,7.48,1111122 
DISL,ioos:station:DISL:MBLA:1,2009-04-02T16:03:00Z,30.4367,-88.0117,3.06,7.28,1111122 
DISL,ioos:station:DISL:MBLA:1,2009-04-02T16:05:00Z,30.4367,-88.0117,2.517,7.48,1111122 
DISL,ioos:station:DISL:MBLA:1,2009-04-02T16:07:00Z,30.4367,-88.0117,1.958,7.51,1111122 
DISL,ioos:station:DISL:MBLA:1,2009-04-02T16:10:00Z,30.4367,-88.0117,1.427,7.52,1111122 
DISL,ioos:station:DISL:MBLA:1,2009-04-02T16:12:00Z,30.4367,-88.0117,0.898,7.56,1111122 
DISL,ioos:station:DISL:MBLA:1,2009-04-02T16:15:00Z,30.4367,-88.0117,0.629,7.58,1111122 
DISL,ioos:station:DISL:MBLA:1,2009-04-02T17:03:00Z,30.4367,-88.0117,3.026,7.26,1111122 
DISL,ioos:station:DISL:MBLA:1,2009-04-02T17:05:00Z,30.4367,-88.0117,2.572,7.38,1111122 
DISL,ioos:station:DISL:MBLA:1,2009-04-02T17:07:00Z,30.4367,-88.0117,2.014,7.54,1111122 
DISL,ioos:station:DISL:MBLA:1,2009-04-02T17:10:00Z,30.4367,-88.0117,1.604,7.59,1111122 
DISL,ioos:station:DISL:MBLA:1,2009-04-02T17:12:00Z,30.4367,-88.0117,0.88,7.63,1111122 
DISL,ioos:station:DISL:MBLA:1,2009-04-02T17:15:00Z,30.4367,-88.0117,0.336,7.65,1111122 
DISL,ioos:station:DISL:MBLA:1,2009-04-02T18:03:00Z,30.4367,-88.0117,3.011,7.38,1111122 
DISL,ioos:station:DISL:MBLA:1,2009-04-02T18:05:00Z,30.4367,-88.0117,2.469,7.51,1111122 
DISL,ioos:station:DISL:MBLA:1,2009-04-02T18:07:00Z,30.4367,-88.0117,1.992,7.6,1111122 
DISL,ioos:station:DISL:MBLA:1,2009-04-02T18:10:00Z,30.4367,-88.0117,1.427,7.63,1111122 
DISL,ioos:station:DISL:MBLA:1,2009-04-02T18:13:00Z,30.4367,-88.0117,1.051,7.66,1111122 
DISL,ioos:station:DISL:MBLA:1,2009-04-02T18:15:00Z,30.4367,-88.0117,0.457,7.67,1111122 
DISL,ioos:station:DISL:MBLA:1,2009-04-02T19:02:00Z,30.4367,-88.0117,2.931,7.58,1111122 
DISL,ioos:station:DISL:MBLA:1,2009-04-02T19:05:00Z,30.4367,-88.0117,2.522,7.63,1111122 
DISL,ioos:station:DISL:MBLA:1,2009-04-02T19:07:00Z,30.4367,-88.0117,2.194,7.7,1111122 
DISL,ioos:station:DISL:MBLA:1,2009-04-02T19:10:00Z,30.4367,-88.0117,1.539,7.7,1111122 
DISL,ioos:station:DISL:MBLA:1,2009-04-02T19:12:00Z,30.4367,-88.0117,0.643,7.74,1111122 
DISL,ioos:station:DISL:MBLA:1,2009-04-02T19:15:00Z,30.4367,-88.0117,0.833,7.76,1111122 
DISL,ioos:station:DISL:MBLA:1,2009-04-02T20:03:00Z,30.4367,-88.0117,2.956,7.43,1111122 
DISL,ioos:station:DISL:MBLA:1,2009-04-02T20:05:00Z,30.4367,-88.0117,2.357,7.68,1111122 
DISL,ioos:station:DISL:MBLA:1,2009-04-02T20:07:00Z,30.4367,-88.0117,1.901,7.74,1111122 
DISL,ioos:station:DISL:MBLA:1,2009-04-02T20:10:00Z,30.4367,-88.0117,1.418,7.73,1111122 
DISL,ioos:station:DISL:MBLA:1,2009-04-02T20:13:00Z,30.4367,-88.0117,1.02,7.77,1111122 
DISL,ioos:station:DISL:MBLA:1,2009-04-02T20:15:00Z,30.4367,-88.0117,0.593,7.8,1111122 
DISL,ioos:station:DISL:MBLA:1,2009-04-02T21:03:00Z,30.4367,-88.0117,3.049,7.7,1111122 
DISL,ioos:station:DISL:MBLA:1,2009-04-02T21:05:00Z,30.4367,-88.0117,2.258,7.71,1111122 